Regional Weather Roundup
Issued by NWS

Home | Current Version | Previous Version | Graphics & Text | Print | Product List | Glossary On
Versions: 1 2 3 4 5 6 7 8 9 10 11 12 13 14 15 16 17 18 19 20 21 22 23 24 25 26 27 28 29 30 31 32 33 34 35 36 37 38 39 40 41 42 43 44 45 46 47 48 49 50
000
ASUS43 KFSD 271710
RWRSD

WEATHER ROUNDUP FOR SOUTH DAKOTA
NATIONAL WEATHER SERVICE SIOUX FALLS SD
1200 PM CDT SUN JUL 27 2014

NOTE: "FAIR" INDICATES FEW OR NO CLOUDS BELOW 12,000 FEET WITH NO
SIGNIFICANT WEATHER AND/OR OBSTRUCTIONS TO VISIBILITY.


SDZ001>005-009-010-012>017-271800-
NORTHWEST AND NORTH CENTRAL SOUTH DAKOTA

CITY           SKY/WX    TMP DP  RH WIND       PRES   REMARKS
BUFFALO          N/A     70  52  52 N15       30.25S
FAITH            N/A     70  54  56 NW20      30.27R
MOBRIDGE       CLOUDY    65  54  67 N15G24    30.22R
$$

SDZ012>016-024>037-041>051-057-063-072>074-271800-
SOUTHWEST AND SOUTH CENTRAL SOUTH DAKOTA

CITY           SKY/WX    TMP DP  RH WIND       PRES   REMARKS
RAPID CTY ARPT SUNNY     73  50  44 N17G24    30.32S
PIERRE         SUNNY     73  55  53 NW21G28   30.21S
CUSTER         SUNNY     74  39  28 VRB3      30.41R
ELLSWORTH AFB  SUNNY     73  49  42 N17G25    30.31S
PHILIP         SUNNY     77  51  40 NW18G25   30.26R
PINE RIDGE     SUNNY     74  51  44 N12       30.33S
WINNER         FAIR      78  54  43 NW18G25   30.22R
$$

SDZ004>011-016>023-039-040-271800-
NORTHEAST SOUTH DAKOTA

CITY           SKY/WX    TMP DP  RH WIND       PRES   REMARKS
ABERDEEN       CLOUDY    63  54  72 NW22      30.17R
WATERTOWN      CLOUDY    64  54  69 NW22G33   30.12R
SISSETON         N/A     65  56  72 N21G29    30.09R
$$

SDZ017-020-022-023-036>040-048>070-271800-
SOUTHEAST SOUTH DAKOTA

CITY           SKY/WX    TMP DP  RH WIND       PRES   REMARKS
SIOUX FALLS    PTSUNNY   69  57  65 NW17G29   30.11R
HURON          CLOUDY    70  56  61 NW17G24   30.15S
MITCHELL       MOSUNNY   72  59  63 NW16G28   30.16R
YANKTON        MOSUNNY   72  55  56 NW22G30   30.14R
$$

ABBREVIATIONS USED IN REMARKS
   TC - TEMPERATURE IN CELSIUS
  WCI - WIND CHILL INDEX
   HX - HEAT INDEX
  VSB - VISIBILITY




USA.gov is the U.S. government's official web portal to all federal, state and local government web resources and services.